Location: Unspecified
(35.6961°N, 0.0000°E)
Time: 10:40:59
(UTC+00:00)

Altair - Pass Details

Date: 19 May 2019
Orbit: 1501 x 1683 km, 47.2° (Epoch: 18 June)

Event Time Altitude Azimuth Distance (km) Brightness Sun altitude
Rises 11:12:24 0° 303° (WNW) 4,902 10.0 71.3°
Reaches altitude 10° 11:15:35 10° 303° (WNW) 3,894 9.6 71.7°
Maximum altitude 11:25:34 84° 218° (SW) 1,613 9.6 72.7°
Drops below altitude 10° 11:35:06 10° 130° (SE) 3,739 9.9 73.4°
Sets 11:38:06 0° 130° (SE) 4,698 10.2 73.6°
